RH
16 16 16 15 13 14 14 14 13 12 12 11 13 11 10 11 10 11 10 11 11 10 10 10 10 9 9 8 9 10 10 11 12 11 10 13 12 12 12 11 12 11 11 11 10 11 12 12 12 11 8 12 15 18 14 13 42 55 42 34 36 44 45 34 24 30 32 26 32 32 36 41 35 29 24 23 24 25 27 28 30 26 23 25 23 21 23 25
16 15 16 15 13 14 14 13 13 12 11 10 12 11 11 11 10 11 10 11 10 10 11 10 10 10 9 9 11 11 10 11 13 12 10 13 12 12 14 11 12 12 11 11 11 13 16 18 18 16 13 11 13 15 15 13 26 49 44 28 44 56 44 31 23 26 25 21 32 35 34 37 33 28 23 22 28 28 25 29 29 26 25 25 27 27 26 26
15 15 15 14 13 14 13 13 13 13 12 11 11 11 11 10 11 11 10 11 11 11 11 11 11 9 9 10 14 15 11 12 14 13 11 13 12 12 13 11 12 11 11 11 11 13 16 21 18 18 17 11 17 17 15 16 21 41 34 17 47 60 36 25 22 22 22 22 30 32 31 34 31 27 22 22 29 31 28 29 28 26 27 27 31 31 27 27
14 15 14 14 14 14 13 13 13 12 12 12 12 12 11 11 12 11 11 12 12 12 11 11 10 9 10 9 12 17 15 16 17 14 11 12 12 12 12 12 12 10 11 11 11 12 15 20 19 18 16 14 27 24 12 17 17 24 28 25 41 41 24 19 20 24 25 25 29 31 30 29 29 27 23 24 25 27 29 27 26 25 24 27 34 33 28 28
14 15 14 13 13 13 13 13 13 13 13 13 13 13 12 12 12 12 12 12 12 12 11 11 10 10 10 9 12 16 16 18 18 12 12 12 11 11 12 12 12 11 11 10 11 11 11 17 17 18 19 16 24 21 11 17 17 16 26 33 34 24 15 17 23 25 24 25 28 29 26 23 25 24 25 27 23 25 29 26 26 25 22 26 32 32 29 28
15 14 14 13 13 13 13 12 13 14 14 13 13 13 13 12 11 11 11 11 12 12 12 12 11 10 9 10 13 17 15 16 16 11 12 13 10 12 11 12 12 10 10 9 11 10 12 15 12 20 27 19 18 17 14 20 19 16 24 27 26 22 14 17 24 24 24 23 25 28 24 23 23 22 28 29 22 23 29 33 33 28 23 23 29 31 30 29
15 14 13 13 12 12 12 12 13 14 13 13 12 12 11 11 11 10 10 11 13 13 13 12 11 10 10 10 12 23 21 13 13 11 13 13 11 12 10 12 12 10 11 9 11 11 16 15 12 25 29 20 19 18 19 25 21 15 24 24 17 21 18 18 22 24 25 20 24 28 21 22 23 22 28 27 21 22 28 38 42 34 25 23 28 32 30 29
14 13 13 13 12 12 12 11 11 12 12 12 11 11 11 11 10 10 10 11 12 13 12 12 11 9 11 10 13 30 28 11 11 13 13 13 12 12 10 12 11 11 11 11 15 14 16 14 14 23 25 22 20 19 23 24 24 21 25 25 17 20 22 23 24 24 25 21 23 23 18 23 26 24 24 21 17 20 22 30 42 37 28 27 29 33 31 30
13 13 13 13 13 11 11 11 11 11 11 11 10 10 10 10 10 9 10 11 12 12 12 12 11 10 12 15 17 27 24 11 11 13 12 12 12 12 11 11 10 11 11 13 16 13 14 15 16 18 20 25 20 24 30 20 26 31 26 22 16 18 21 23 22 22 25 24 22 18 18 24 26 25 22 19 18 24 23 22 38 36 28 30 28 31 33 30
14 14 13 13 12 12 12 11 12 11 11 10 10 10 10 10 10 10 10 11 12 12 13 11 10 13 12 16 20 22 18 12 11 12 11 11 12 13 11 11 10 11 11 14 16 16 18 15 18 19 20 26 21 28 31 17 24 35 32 24 20 26 25 22 21 23 26 23 23 17 18 25 26 25 20 21 26 29 25 21 34 34 27 30 29 31 31 29
16 15 14 13 12 12 11 10 11 11 10 10 9 10 10 10 10 10 10 11 11 12 14 12 11 15 13 18 24 19 14 11 11 12 11 10 11 12 12 12 12 11 12 15 16 18 18 16 20 22 20 20 21 29 32 27 26 27 29 22 28 39 26 20 22 22 23 19 24 21 19 26 24 25 20 19 27 27 23 22 31 35 33 34 31 30 30 28
16 15 14 13 12 12 10 10 9 9 10 10 10 10 9 11 10 10 11 10 11 12 14 12 12 16 17 23 26 16 11 11 11 11 11 12 11 12 13 13 13 12 12 13 15 15 15 19 24 25 24 22 22 24 26 32 28 24 27 19 34 51 32 23 25 24 21 18 27 24 21 30 27 24 20 20 29 26 22 24 28 33 35 37 35 32 30 28
15 15 14 14 12 11 10 10 10 10 10 10 10 11 10 10 9 10 10 11 12 13 14 13 16 18 17 22 20 11 11 11 11 11 12 13 12 12 13 13 13 14 14 12 13 13 13 17 23 29 35 35 30 23 29 38 29 25 28 24 34 48 46 34 24 25 20 20 30 24 27 42 38 27 21 24 28 22 20 23 25 29 30 34 37 33 32 31
16 15 14 13 13 12 12 12 12 11 11 12 13 13 12 10 11 10 11 12 13 15 14 14 17 18 17 19 13 10 12 11 12 12 11 12 13 12 13 14 13 13 14 13 12 12 13 15 18 26 34 41 33 23 47 60 43 30 26 45 52 38 53 52 31 26 18 23 31 21 30 40 31 25 25 30 29 21 20 23 25 27 27 31 34 31 31 33
15 15 14 13 13 13 13 12 12 13 13 15 18 20 18 12 11 10 11 13 14 15 15 15 17 19 24 21 10 11 12 11 13 12 12 13 14 14 14 13 13 13 14 13 14 12 12 15 21 28 28 36 40 35 53 60 59 54 29 51 68 42 56 60 35 29 17 23 30 22 34 36 26 25 29 34 31 24 21 24 26 25 26 28 30 29 30 33
14 15 14 13 13 13 14 12 12 13 12 13 15 20 20 13 11 11 13 14 16 16 14 16 16 18 25 20 10 12 12 13 14 12 13 14 15 17 16 15 14 13 13 13 14 12 12 21 30 37 28 28 50 61 58 47 60 73 43 41 60 48 51 46 32 35 25 23 26 24 35 35 28 27 29 32 28 24 24 25 27 26 28 27 28 31 32 33
14 14 13 13 12 12 13 12 13 12 11 11 9 14 16 12 12 13 14 15 16 17 15 16 16 15 18 15 12 13 15 14 13 14 14 14 16 17 16 18 17 15 17 14 13 14 13 23 29 36 47 48 56 58 45 43 51 57 46 43 56 50 43 41 38 38 30 27 26 27 34 30 27 25 27 32 27 25 26 26 28 29 31 32 33 36 34 34
13 12 12 11 11 12 12 12 14 14 12 10 9 16 17 15 16 14 15 17 18 19 15 17 18 15 16 18 17 15 16 15 15 15 14 16 16 16 20 21 20 18 23 22 16 18 18 30 39 40 57 57 48 41 34 52 53 34 36 41 46 47 41 42 43 37 30 30 31 32 35 32 28 26 26 34 33 26 26 28 31 33 34 36 36 35 34 34
12 12 10 10 10 10 11 12 15 17 12 8 14 20 18 21 23 15 14 17 25 26 20 24 26 20 19 21 20 16 16 16 15 14 15 18 14 18 22 19 26 23 22 26 21 26 27 34 44 38 45 45 41 44 39 53 51 30 41 43 37 41 41 41 46 51 40 31 38 36 34 33 29 30 31 37 37 29 30 33 34 37 37 37 36 36 38 42
12 11 9 10 10 10 11 11 17 19 12 7 13 19 19 29 32 27 29 28 35 38 31 36 34 22 20 20 18 17 17 15 14 16 16 17 16 21 19 22 42 36 28 31 25 34 33 29 41 38 42 44 43 50 44 51 49 33 39 42 41 42 41 40 43 58 51 35 46 45 39 42 36 36 38 37 39 33 34 37 39 41 39 40 43 46 48 49
11 10 9 10 8 11 12 11 18 20 13 7 10 18 22 26 22 23 33 30 35 40 36 41 35 23 19 17 19 19 19 18 14 16 16 17 19 19 19 28 36 29 39 47 37 48 42 32 52 57 52 46 46 57 49 43 41 36 37 36 44 48 43 42 41 57 58 41 53 54 44 47 43 42 43 42 42 38 37 41 43 45 45 48 49 50 50 49
11 9 9 9 8 12 12 13 18 20 16 7 12 26 30 30 26 26 28 25 31 40 42 41 31 28 24 17 21 20 21 24 18 18 18 16 20 19 25 36 31 27 50 53 40 52 51 42 59 66 60 49 53 67 54 43 40 40 47 42 45 53 51 53 52 61 57 40 52 58 44 45 46 44 47 50 50 47 47 47 47 47 46 47 47 48 49 50
9 9 9 8 9 11 13 15 16 21 19 9 16 30 31 33 34 33 31 26 28 37 45 38 24 27 28 19 20 21 22 24 21 22 21 18 24 28 30 38 40 36 44 46 39 44 46 45 51 54 53 38 39 54 48 44 46 44 45 40 45 52 47 51 58 62 56 45 51 52 46 50 51 46 46 50 52 51 50 50 50 50 48 49 50 51 51 53
9 10 8 8 10 9 14 16 14 25 26 16 21 28 28 31 31 32 34 32 34 38 38 33 28 29 26 20 19 22 25 25 24 22 21 22 27 32 35 38 37 33 41 52 51 46 43 46 46 46 50 37 28 42 41 34 45 60 56 41 44 49 43 49 59 58 54 54 51 44 47 51 47 48 51 49 48 49 49 49 52 53 54 54 54 55 56 57
9 9 8 8 9 8 14 15 15 30 34 26 28 30 29 28 30 34 32 30 34 38 36 31 30 28 22 20 21 24 28 29 27 23 21 25 28 30 37 40 31 28 46 55 49 46 47 50 45 40 50 48 33 36 43 36 40 60 62 48 45 46 45 52 57 52 48 49 44 38 49 55 49 50 55 52 51 54 53 53 55 55 55 55 55 57 59 61
8 9 9 7 9 9 12 14 16 28 37 35 34 34 30 27 31 35 40 45 36 30 35 29 23 23 21 23 30 32 29 28 26 23 22 24 29 27 27 41 37 26 43 54 48 44 41 45 47 47 54 53 42 38 46 50 44 47 57 59 56 50 48 49 48 48 50 47 43 41 48 56 53 49 53 56 58 60 58 58 58 56 56 57 60 61 62 64
9 10 9 7 11 9 10 17 19 23 29 31 31 30 29 29 29 28 41 54 40 27 32 31 24 21 23 27 35 31 21 25 24 22 25 22 30 31 25 40 40 31 47 48 42 45 41 43 50 57 58 47 41 40 47 59 51 49 61 62 55 47 45 49 43 45 53 50 51 52 44 50 56 50 51 57 62 66 64 64 62 58 60 60 62 65 66 67
9 9 9 9 11 9 13 19 18 22 26 24 26 28 30 30 28 34 41 34 28 28 28 32 28 22 31 35 38 40 32 31 24 21 30 25 29 37 31 36 34 38 54 40 36 54 50 42 43 47 51 49 45 43 52 57 44 50 64 59 52 48 47 53 49 53 62 54 54 59 47 51 62 54 51 56 63 72 71 68 68 63 64 64 64 67 68 68
9 10 9 9 11 11 15 18 17 21 25 24 25 27 30 29 30 45 48 26 21 28 28 30 24 27 47 45 44 54 44 35 31 29 37 30 27 33 31 41 46 46 54 46 46 57 50 46 49 40 40 51 52 53 64 57 39 48 61 58 60 66 63 57 54 60 70 62 54 57 48 50 61 56 53 60 65 75 76 72 70 67 66 66 67 70 70 70
8 10 9 10 12 10 15 22 19 18 25 26 25 31 32 37 51 52 34 22 22 27 32 28 21 37 60 53 50 54 40 40 50 47 46 40 37 42 40 48 60 59 57 58 55 55 56 60 59 48 46 52 48 53 68 63 48 48 54 51 53 65 65 66 76 67 59 63 61 59 51 45 58 59 54 62 67 72 78 74 69 66 66 66 68 72 73 73
8 10 10 13 14 11 16 22 18 19 26 24 30 44 37 43 77 62 18 16 26 29 36 34 35 54 62 53 47 47 44 51 60 52 47 50 47 49 47 41 52 64 60 57 56 57 63 61 55 57 61 56 43 45 61 71 67 56 52 46 40 54 55 58 82 69 54 70 65 58 55 46 58 61 54 66 71 70 74 73 68 66 65 67 68 72 74 73
9 9 13 18 15 13 18 20 21 22 22 30 45 56 46 40 53 42 20 22 21 24 34 34 46 59 57 52 42 41 49 48 52 51 48 59 57 48 49 39 38 49 47 48 51 50 54 57 57 57 58 55 42 40 53 67 68 54 52 54 50 62 61 55 71 66 64 75 56 49 52 46 60 68 65 75 73 70 72 67 65 65 63 65 66 70 74 73
8 10 16 20 16 14 17 17 21 20 22 42 49 50 63 55 27 21 36 33 17 27 41 42 55 60 50 46 41 46 49 37 42 47 41 56 61 51 54 53 47 41 34 41 44 40 48 57 55 46 47 53 41 34 41 47 49 41 47 63 59 57 59 63 69 60 59 64 50 47 46 46 63 70 74 80 72 71 72 65 66 64 62 64 62 67 72 72
8 12 17 19 15 14 18 16 18 22 29 42 39 39 55 46 20 22 38 38 36 44 49 51 59 54 42 40 43 48 44 37 43 44 43 57 57 49 50 52 55 45 35 44 45 39 42 44 42 36 39 47 42 38 39 36 42 47 48 55 54 51 50 59 69 60 58 65 56 46 47 62 76 72 72 77 72 75 75 71 73 68 66 65 61 64 70 73
9 14 18 18 17 16 17 15 18 25 31 39 44 48 42 25 23 31 33 42 53 48 46 56 56 45 46 54 57 46 31 38 50 42 43 54 48 47 46 42 51 49 42 48 47 41 40 38 41 47 47 45 44 50 50 37 38 50 50 42 48 59 53 56 72 66 62 75 72 58 60 72 74 67 67 70 72 76 76 75 74 70 67 65 63 66 70 76
11 16 19 17 19 20 17 16 21 29 38 47 50 47 36 25 25 31 36 43 47 46 50 57 52 45 48 57 63 53 32 38 51 37 35 46 44 45 48 46 51 48 38 42 46 45 46 44 44 48 49 44 45 52 54 46 38 41 46 43 47 54 46 51 69 66 62 70 68 68 76 74 69 68 65 66 72 73 74 73 69 69 68 66 68 70 73 79
15 18 20 19 22 22 16 19 26 31 40 52 53 43 33 29 31 45 62 57 45 49 51 42 36 36 39 46 58 59 43 38 44 36 34 44 39 39 52 55 49 44 37 38 46 46 45 50 48 40 38 45 53 55 54 54 46 39 45 48 46 48 54 61 64 66 75 76 66 71 86 86 83 81 70 67 75 75 74 72 69 70 69 67 71 72 77 82
20 23 22 19 22 21 18 21 25 31 42 54 64 60 44 39 46 60 75 69 51 49 46 37 33 34 37 43 55 63 51 39 42 42 39 41 36 36 50 53 42 50 56 44 42 48 46 50 53 44 39 49 54 48 50 56 49 41 44 45 41 47 64 68 63 67 74 77 81 81 80 81 84 86 79 74 77 76 74 74 73 76 74 71 73 74 78 78
22 33 33 22 19 20 18 17 23 37 47 50 59 60 49 51 63 70 76 73 56 46 45 41 38 43 46 44 52 65 58 43 43 44 36 35 38 37 46 49 41 56 71 52 40 52 52 46 52 49 41 45 46 40 47 57 53 49 49 47 44 49 63 63 59 71 73 74 89 88 78 78 76 77 77 74 75 74 75 79 79 79 79 75 74 76 77 73
22 38 35 19 15 18 16 13 25 46 53 51 58 59 53 58 69 80 89 84 61 41 41 46 42 45 51 50 53 58 56 52 50 46 39 38 39 38 46 55 50 55 68 58 45 50 51 46 53 55 44 42 45 43 43 44 47 53 52 49 46 49 63 63 54 65 69 70 86 90 87 84 70 65 72 72 74 75 76 82 80 76 78 77 74 76 73 67
35 43 30 17 15 16 18 22 40 65 67 58 60 65 66 64 61 73 92 93 74 50 44 52 50 48 52 55 55 54 53 59 59 51 46 43 38 35 47 64 66 60 59 57 51 48 49 50 56 59 51 44 43 43 43 39 42 52 51 48 51 54 61 66 69 77 75 72 84 88 86 85 71 64 69 71 73 76 76 79 78 75 74 72 71 69 65 64
45 41 22 17 14 11 23 39 60 83 77 54 49 61 75 75 59 59 74 76 69 62 57 55 54 58 59 53 52 55 53 60 62 49 43 45 38 35 57 85 89 68 50 52 54 50 51 58 61 61 54 45 43 46 53 54 51 51 48 46 55 61 56 58 73 84 76 71 78 81 82 85 77 67 67 69 72 76 77 77 76 72 64 63 67 64 60 65
48 31 15 16 15 15 29 46 62 76 70 54 53 63 75 78 64 57 65 64 57 57 57 54 51 50 50 50 52 51 48 54 56 45 42 50 46 50 78 98 88 63 49 53 55 49 51 58 61 61 55 47 47 49 53 57 52 47 51 55 57 59 60 64 71 77 77 74 72 74 81 85 78 71 71 74 75 79 81 74 68 63 55 57 65 63 58 62
58 34 27 22 9 14 34 42 48 63 68 58 54 60 66 72 67 57 58 64 63 56 51 54 53 44 45 55 56 51 48 45 44 44 45 44 46 69 93 90 70 55 50 55 57 50 50 57 61 64 65 61 63 66 61 60 58 51 55 65 62 57 63 71 74 77 80 76 68 72 85 88 82 77 74 74 74 76 74 65 59 58 56 57 62 61 58 61
47 29 37 35 16 26 53 61 60 66 70 59 48 52 57 60 67 70 67 68 71 64 52 51 53 51 55 60 57 60 59 44 38 49 53 46 49 72 93 92 78 65 64 76 78 60 52 56 55 58 69 73 74 73 65 62 62 57 59 66 67 68 68 68 77 84 83 80 77 80 91 90 84 81 73 67 68 69 66 60 57 57 56 60 64 60 56 60
33 28 42 50 43 47 63 78 82 70 59 57 51 47 50 48 55 73 76 65 63 63 56 54 56 53 55 59 58 67 69 54 48 52 54 58 61 66 85 98 89 78 82 89 85 69 62 63 57 54 63 68 65 57 52 59 64 63 70 74 75 83 78 68 76 82 81 87 88 84 87 83 78 79 72 64 67 71 66 61 60 57 55 59 62 58 57 61
46 39 39 44 47 56 63 72 82 69 52 57 50 38 51 58 51 57 60 53 58 62 54 58 61 50 49 58 59 64 70 61 54 52 52 64 73 67 74 85 83 83 83 76 71 68 64 66 66 66 64 60 59 54 50 59 63 68 84 87 82 87 83 74 78 76 78 93 92 81 80 75 69 73 72 67 68 70 68 63 61 60 56 56 58 59 63 65
46 38 41 39 35 48 55 53 66 70 61 68 62 43 54 63 50 48 48 47 60 59 40 44 58 55 56 62 55 56 66 59 53 59 62 69 77 72 67 67 70 76 71 61 65 63 58 65 71 72 71 63 58 56 57 62 65 74 90 90 83 86 84 83 86 79 79 89 86 76 73 68 69 73 71 68 67 68 68 64 61 60 58 60 64 65 68 67
40 38 46 47 41 49 57 54 64 66 57 67 66 50 55 57 45 46 50 49 56 53 37 33 44 56 68 69 57 54 61 57 54 66 72 72 76 75 69 63 63 70 66 58 64 62 60 74 81 77 76 67 57 59 62 64 71 81 87 86 85 86 83 83 83 76 77 79 75 74 72 68 71 72 68 65 65 65 64 62 61 61 61 66 69 67 68 67
39 38 41 51 58 64 70 73 75 67 60 67 57 46 60 60 47 53 58 47 37 38 44 44 45 62 75 73 65 57 54 52 53 62 70 73 78 77 68 61 63 75 75 65 63 60 56 71 86 85 78 67 61 66 65 64 78 88 86 85 87 84 81 81 74 69 78 83 78 76 78 76 71 65 64 64 62 64 66 66 65 62 63 69 69 66 66 65
38 40 39 48 54 58 65 72 78 72 61 59 48 41 51 50 49 60 60 52 45 37 44 53 56 69 75 69 67 64 60 63 64 66 69 72 76 72 62 62 69 77 81 78 75 71 65 74 90 91 82 71 65 67 65 65 77 88 86 88 92 87 80 76 66 61 73 87 88 83 85 86 74 63 65 66 64 69 72 70 66 63 65 69 67 67 66 63
35 34 40 50 48 53 65 65 69 68 51 45 49 47 44 49 64 62 41 49 68 58 52 59 58 63 67 59 56 57 61 68 70 74 78 76 77 76 71 73 73 71 79 83 81 83 79 77 86 91 84 75 68 66 66 66 73 82 84 85 90 86 78 73 67 61 65 78 89 90 85 80 70 67 74 74 71 74 74 68 67 68 68 66 65 67 65 61
Wind_Speed
4 4 6 6 6 6 6 7 6 6 5 4 4 4 4 4 4 4 5 6 7 10 11 12 12 13 14 13 12 10 8 7 7 6 5 5 9 9 8 8 6 6 7 7 8 5 3 4 6 10 4 4 3 0 1 2 3 4 3 3 2 3 4 5 7 7 4 2 4 5 5 8 5 2 1 1 1 1 1 3 4 4 1 1 0 2 12 25
3 4 6 6 6 8 8 7 6 6 5 4 4 4 5 5 6 6 8 9 10 11 11 11 12 14 15 11 10 9 6 6 6 3 5 8 10 9 8 9 8 6 7 6 8 7 4 4 6 8 5 2 2 1 1 1 3 3 3 2 4 5 5 5 6 6 3 1 4 4 3 6 6 2 1 2 4 3 2 5 3 5 5 2 4 11 20 26
2 4 6 6 7 9 8 6 5 5 5 4 4 4 5 6 7 7 8 9 10 11 11 11 12 15 15 9 7 6 2 2 3 2 5 9 9 8 8 8 8 6 6 6 8 7 3 3 4 4 4 2 1 1 1 1 1 2 3 1 6 6 5 4 5 6 4 2 2 2 2 4 5 2 2 3 5 4 5 7 3 6 10 4 4 12 19 22
2 4 5 6 8 9 7 5 5 5 5 4 4 4 5 5 6 7 8 8 9 11 11 11 13 15 15 8 5 5 1 3 2 2 6 9 8 8 8 7 6 6 6 7 8 7 4 1 1 3 3 1 3 2 1 1 1 2 4 4 6 3 3 5 6 6 4 3 3 2 2 1 4 2 1 3 2 7 7 8 8 10 11 8 5 10 17 18
2 4 5 7 8 8 6 5 5 4 4 4 4 4 5 5 6 7 8 9 10 11 11 12 12 14 14 7 4 5 3 4 3 3 8 9 8 9 7 6 7 6 5 6 6 5 2 3 4 5 4 1 3 3 1 2 1 2 3 5 5 4 2 5 4 4 3 3 3 3 2 3 1 1 3 6 5 8 6 7 10 11 10 9 9 11 14 14
2 3 5 7 8 8 6 5 5 4 3 4 4 4 5 6 6 8 8 9 11 11 12 11 12 13 11 6 4 3 2 0 3 4 8 8 8 9 7 7 8 6 4 5 5 3 2 4 4 2 3 0 1 1 3 3 1 1 4 2 4 4 2 2 2 2 3 5 3 3 3 1 2 3 3 7 11 10 5 6 8 8 8 10 12 12 12 11
2 4 5 7 7 7 6 5 4 3 4 5 5 6 6 7 7 8 9 9 10 11 11 11 11 11 8 4 3 3 2 2 3 5 7 7 9 9 6 6 7 5 4 5 5 2 3 5 2 4 4 1 3 2 2 4 3 1 3 3 2 3 3 2 2 2 5 4 4 3 1 0 2 4 2 5 14 11 8 5 3 2 6 12 11 11 12 13
3 4 6 7 7 7 6 5 4 4 6 6 7 7 8 8 8 9 9 9 10 11 10 10 11 10 6 3 0 3 3 2 3 5 7 7 8 10 7 5 6 6 4 7 6 0 3 3 2 4 3 1 4 2 1 3 4 2 4 3 0 1 4 2 2 2 2 1 2 0 2 4 5 2 3 11 14 9 9 6 3 4 7 10 9 10 10 11
4 5 6 7 8 7 7 6 6 6 7 7 8 8 9 9 9 9 8 8 10 10 10 10 11 9 5 2 4 3 4 2 4 6 8 9 8 9 8 5 7 8 5 8 7 2 2 1 2 3 3 2 4 1 1 1 2 3 4 2 1 2 4 2 0 1 2 2 1 1 6 5 3 2 4 13 12 7 6 6 5 7 7 7 8 9 9 9
5 6 7 8 9 9 9 8 7 7 7 8 8 9 9 9 9 9 7 7 9 10 10 9 9 9 4 2 6 1 3 2 5 7 9 11 9 7 7 8 10 10 7 7 10 7 2 3 3 3 4 2 2 0 1 2 2 2 3 1 1 3 4 1 1 3 2 2 2 3 7 6 4 2 4 9 6 5 2 3 4 6 7 6 6 7 9 10
6 7 8 9 9 10 10 10 9 9 8 8 9 9 9 9 9 8 6 6 8 10 10 8 8 7 3 4 5 2 3 3 5 7 11 12 11 8 7 8 9 11 8 6 8 7 4 2 3 3 2 1 1 1 2 3 1 1 2 1 3 5 5 2 2 4 0 2 4 5 5 6 3 0 9 10 4 4 2 2 3 5 5 5 5 5 7 9
6 7 9 10 11 11 11 11 11 10 10 9 9 9 9 9 8 7 6 6 8 10 10 7 7 6 3 4 3 3 3 4 5 8 11 13 12 9 6 6 7 9 8 5 5 5 6 1 3 4 1 1 1 1 1 1 2 1 3 2 7 8 5 5 3 3 3 1 5 5 4 6 3 7 13 9 6 5 2 1 2 4 3 3 5 4 5 7
7 8 9 10 11 12 12 12 11 11 11 10 10 10 10 9 8 7 6 6 7 9 9 6 5 4 3 3 1 1 3 4 6 8 11 12 11 8 4 4 7 9 8 5 4 4 7 3 4 5 1 4 1 1 2 3 3 1 3 2 5 7 6 6 1 3 5 3 4 4 4 7 7 11 12 6 5 3 2 1 1 2 3 4 4 4 4 3
7 8 9 10 11 12 12 12 11 12 11 12 12 12 12 10 8 6 6 7 8 9 8 4 3 3 3 1 2 2 3 4 7 10 12 12 12 8 3 6 7 7 7 5 4 4 5 3 5 5 2 3 0 1 4 6 3 1 1 2 2 2 5 6 1 5 5 2 2 4 2 7 11 11 9 7 3 2 4 4 2 1 3 4 5 5 3 3
7 8 9 10 11 12 12 11 11 11 12 12 13 13 13 11 9 7 7 8 8 9 7 2 1 2 3 2 1 2 4 5 8 12 13 13 13 9 8 13 9 4 5 5 3 4 4 2 5 4 1 2 3 3 4 4 3 2 1 3 3 2 5 8 2 6 5 0 2 4 2 7 11 10 7 5 2 5 6 5 2 0 2 4 5 5 5 5
6 8 9 10 11 11 11 11 11 12 13 14 14 14 11 8 7 7 8 9 9 8 5 2 1 3 3 2 2 3 3 5 9 12 11 11 11 9 13 15 8 3 4 3 1 2 4 4 4 2 1 2 4 4 3 4 4 3 1 4 3 2 4 6 3 2 3 1 0 3 4 5 6 6 5 4 4 4 5 6 3 2 1 3 4 5 6 6
6 8 9 10 11 11 11 10 11 14 14 15 15 12 8 5 4 4 6 8 5 3 1 2 1 3 2 2 2 3 4 7 12 12 9 9 10 10 12 8 4 6 6 2 1 1 4 5 1 1 2 3 2 4 4 4 5 4 1 2 4 3 3 4 4 3 2 1 3 3 4 7 9 8 5 5 2 1 5 7 5 1 3 3 5 6 6 8
7 9 10 11 11 10 10 10 12 14 15 16 14 7 3 1 2 4 5 3 1 3 4 2 3 3 1 3 2 5 9 12 14 9 6 8 10 11 7 2 3 7 5 3 2 2 2 3 2 1 4 3 2 5 1 5 4 2 3 3 4 3 3 4 5 2 2 1 3 3 5 10 13 13 7 6 4 2 5 4 1 4 5 5 6 7 7 9
9 11 11 12 11 10 10 10 12 14 15 16 9 3 3 3 4 6 10 7 3 2 1 1 2 2 3 4 4 9 12 11 8 5 6 11 12 8 3 1 3 4 3 2 3 2 1 2 3 1 2 3 2 5 7 8 4 3 4 4 4 5 4 5 6 5 3 2 5 7 8 9 12 12 9 8 6 4 3 4 6 5 7 7 8 8 8 9
11 12 12 11 11 11 9 9 12 13 16 16 6 2 4 4 2 3 8 8 2 1 1 2 1 0 3 4 6 12 11 5 2 3 9 15 11 4 3 3 5 5 3 1 2 2 2 2 2 5 6 7 6 7 6 4 3 1 2 3 4 5 6 6 4 5 2 3 6 7 7 9 9 9 10 11 7 1 3 8 7 6 8 8 9 8 8 8
11 11 11 11 11 11 8 7 12 12 14 15 7 4 2 1 2 2 4 4 1 2 0 3 2 2 4 4 7 9 5 2 2 4 12 15 7 2 3 4 6 4 2 1 2 3 3 0 6 7 7 7 4 4 4 2 2 1 2 4 4 4 6 6 3 4 1 2 4 2 3 8 6 7 9 9 6 6 5 9 9 9 10 7 9 9 8 7
11 10 11 11 12 12 7 6 11 10 10 13 11 9 5 3 3 1 0 1 3 1 1 3 1 3 5 3 5 5 3 4 5 5 14 15 6 3 3 4 4 2 4 2 1 4 3 4 8 6 4 1 3 4 4 2 1 1 0 1 4 4 4 6 3 4 2 2 3 3 3 6 5 6 8 10 7 7 7 9 9 9 11 8 8 8 8 8
10 10 11 12 13 12 6 4 10 10 10 14 12 8 4 3 4 2 2 2 2 3 2 3 2 3 5 2 4 6 4 4 3 5 13 13 5 3 2 4 3 1 4 3 2 0 2 4 5 1 2 3 1 3 5 3 1 1 2 1 4 3 1 3 4 4 2 2 3 3 4 4 5 6 9 10 7 9 10 11 11 9 9 8 7 7 8 9
11 11 12 12 13 13 7 4 9 11 10 13 12 7 4 3 3 3 2 2 2 3 0 0 1 0 3 2 4 5 2 1 2 5 10 9 3 2 1 1 2 1 2 0 4 3 5 4 0 3 3 2 2 3 3 1 3 3 4 5 5 4 3 5 3 4 3 2 2 1 3 3 4 6 7 7 8 10 9 11 12 9 8 7 8 8 8 9
12 12 12 13 13 13 8 3 8 11 6 8 9 5 3 1 2 2 2 3 2 3 2 0 0 1 2 3 5 2 0 1 2 4 7 7 2 2 2 0 1 1 4 1 1 3 6 3 0 2 4 3 1 3 2 4 2 5 4 7 6 4 4 3 4 5 4 3 1 3 3 3 3 6 5 4 7 9 7 10 11 8 8 8 8 8 8 9
12 12 13 14 13 13 7 2 7 10 4 4 6 4 1 1 0 2 2 4 2 3 4 1 0 3 5 4 4 1 1 2 2 2 5 5 2 1 1 2 1 1 3 2 1 3 3 2 3 3 3 5 2 3 3 5 2 3 3 4 4 3 0 2 4 3 1 3 2 3 2 3 2 5 3 3 8 8 7 9 9 7 8 8 7 7 7 9
13 13 14 14 13 13 6 1 6 7 2 3 7 5 0 1 1 0 2 5 2 2 2 3 1 3 5 5 4 2 1 4 2 2 3 4 4 1 1 3 1 1 1 2 2 2 1 3 6 5 4 4 2 3 3 5 4 3 3 3 3 1 2 3 0 1 3 3 3 0 4 3 1 2 2 4 9 8 7 8 7 7 8 8 8 8 8 8
13 14 14 15 14 13 8 3 4 4 2 4 6 3 1 1 0 1 5 4 2 1 0 3 2 2 5 6 6 4 2 5 2 2 3 4 4 3 2 2 2 3 2 4 1 4 1 1 2 3 4 2 3 4 3 5 2 5 3 2 1 2 3 3 3 3 2 3 4 3 3 3 2 2 3 3 7 7 5 6 6 7 7 7 8 8 8 8
13 13 14 15 12 12 9 5 6 6 5 6 4 3 1 1 1 3 5 2 2 1 1 2 2 2 7 7 6 4 3 3 3 4 5 4 4 4 1 2 3 1 2 3 3 5 1 1 2 2 1 2 5 5 4 5 3 3 2 1 1 2 1 1 3 2 1 2 4 5 2 2 2 2 4 2 4 5 4 3 4 6 6 7 7 6 7 6
13 12 14 14 11 12 9 5 8 10 8 7 4 3 1 1 4 6 3 0 1 2 1 2 2 4 7 8 5 6 4 3 3 5 5 3 5 6 2 1 4 4 2 4 2 4 3 2 2 2 2 4 3 3 4 5 4 1 2 2 3 4 3 3 2 3 3 2 6 5 2 2 1 4 5 2 3 6 5 4 4 5 6 7 6 5 5 6
12 12 13 12 11 13 8 5 10 12 10 9 3 1 2 2 5 6 1 2 1 3 3 4 3 4 8 6 3 6 5 5 5 5 6 4 6 8 4 2 4 4 4 6 4 5 5 3 1 1 2 2 0 2 1 0 1 2 3 3 4 4 3 3 4 3 2 4 6 3 2 3 1 3 3 1 4 8 6 5 5 5 6 6 5 5 5 5
12 11 12 11 11 13 10 7 11 12 12 8 1 4 4 2 4 3 2 4 2 3 3 3 3 5 5 3 3 5 4 5 4 4 3 3 4 4 4 2 2 4 5 4 4 7 5 1 3 3 1 2 1 3 4 4 4 3 3 4 3 4 4 2 3 1 2 4 3 1 1 1 2 1 2 3 7 9 6 6 7 6 6 6 5 5 4 4
11 10 10 10 12 14 13 11 12 13 12 5 2 4 6 5 2 1 3 3 2 3 2 1 4 4 4 4 4 5 3 3 4 4 1 1 4 3 3 1 1 3 3 2 3 6 5 4 4 2 1 1 2 2 4 3 3 4 2 2 2 2 3 4 4 2 4 5 3 1 2 1 2 1 3 4 7 7 6 6 6 7 7 6 5 5 4 5
10 8 8 9 13 15 15 14 13 14 11 3 4 5 7 4 1 1 3 3 2 4 2 1 5 5 3 3 3 4 3 2 4 5 3 3 4 3 4 5 4 3 1 1 2 1 2 4 4 1 1 2 1 0 1 1 2 3 1 4 2 2 1 4 4 2 4 5 4 3 1 2 2 1 2 3 5 5 5 5 5 6 5 5 5 5 4 4
8 6 7 11 15 17 17 15 15 15 9 4 6 6 5 1 3 0 2 4 2 5 4 2 3 4 4 3 3 2 1 2 4 5 4 3 2 0 2 4 4 3 2 2 2 0 1 4 6 2 2 1 1 1 1 2 2 2 2 3 0 3 3 2 3 3 2 3 4 2 1 0 1 1 1 3 5 5 4 4 5 5 4 5 5 5 4 4
5 4 7 13 17 20 20 16 16 14 6 5 8 5 2 1 1 1 1 3 1 3 6 5 5 4 4 5 4 4 1 2 3 4 3 1 1 1 1 2 2 3 3 1 2 1 1 5 7 4 3 1 1 1 1 2 1 0 1 1 4 4 4 1 2 1 2 1 3 1 3 1 1 2 1 3 4 4 4 4 5 5 5 6 5 5 4 3
3 2 5 13 19 22 21 17 15 10 4 7 7 3 2 1 1 2 1 1 1 1 3 4 3 2 3 3 4 5 4 2 2 3 2 2 0 1 1 1 1 1 1 0 2 2 1 5 7 3 2 2 1 1 3 2 1 1 1 3 3 1 4 2 1 3 3 2 4 0 3 3 2 2 2 3 4 4 4 4 4 5 6 6 6 5 4 4
2 1 3 11 20 23 19 15 10 4 6 7 5 3 1 0 1 2 1 0 1 1 4 2 2 2 1 1 4 5 5 4 4 4 2 2 1 1 1 1 0 1 2 2 1 1 1 4 7 2 1 4 2 2 4 3 0 1 3 3 1 0 1 1 0 1 2 2 4 3 1 3 3 3 5 4 4 4 3 3 4 5 6 6 6 5 3 4
3 2 2 11 22 21 14 10 7 6 8 6 3 1 0 1 1 2 1 0 0 2 2 1 1 2 1 1 3 4 3 2 3 3 1 1 2 1 3 1 1 2 3 1 1 2 0 1 5 3 2 4 4 3 3 4 4 3 2 3 1 3 3 1 0 1 1 2 3 4 3 2 2 2 6 5 3 4 3 3 4 5 5 5 5 3 2 2
2 2 1 15 25 15 7 12 12 8 6 4 2 1 0 1 2 2 2 1 0 1 1 1 1 2 2 2 2 2 2 1 2 2 1 1 2 2 3 2 1 3 4 2 1 1 1 0 4 5 4 3 3 2 0 3 4 3 3 3 2 1 1 1 1 1 1 2 2 2 4 3 2 1 6 6 4 4 3 3 4 5 4 4 3 1 1 1
3 3 3 19 23 7 5 12 10 5 4 3 1 1 1 0 1 3 2 0 0 0 1 2 2 0 1 2 2 1 2 2 1 1 2 1 1 2 3 2 0 3 4 4 2 1 1 1 3 5 5 4 4 3 1 2 3 2 0 0 1 1 2 2 4 2 1 1 3 1 4 5 1 2 5 6 5 4 4 4 4 4 4 5 2 1 1 1
5 3 5 20 18 6 9 8 3 2 4 2 2 1 1 2 1 3 2 2 1 1 1 2 1 0 1 1 2 1 1 2 1 1 1 2 1 1 2 2 0 1 2 2 3 1 1 2 1 5 5 6 8 5 1 1 3 4 1 1 1 1 2 1 5 4 2 1 2 2 3 3 1 2 4 5 4 4 5 4 2 4 5 5 1 1 2 1
3 2 6 19 12 6 10 6 2 4 3 0 0 0 1 1 1 2 2 2 1 1 2 1 0 1 0 1 1 1 1 2 3 1 2 2 1 1 2 2 1 1 2 2 3 1 1 2 2 5 5 5 6 4 3 2 4 3 1 2 2 1 1 3 4 2 2 3 1 1 3 1 1 2 4 4 3 3 3 3 4 5 6 4 0 1 3 1
2 3 4 18 13 6 7 4 2 3 2 1 2 2 3 1 1 2 2 2 2 1 1 1 0 1 1 0 0 2 2 1 2 1 1 1 1 1 2 3 3 2 2 2 2 2 2 1 2 4 6 6 6 6 6 5 3 1 3 2 1 1 1 1 1 1 1 4 2 3 3 0 3 2 3 3 3 3 2 3 5 5 6 4 1 2 4 3
3 0 3 14 19 13 5 3 5 4 1 2 4 3 4 1 0 1 0 1 1 1 0 1 0 0 1 1 1 2 2 1 2 2 3 1 2 2 3 5 4 2 2 2 2 1 1 1 1 2 3 5 6 6 5 5 3 2 3 4 3 2 2 2 1 1 1 2 0 1 2 1 2 3 2 3 3 3 4 4 4 5 5 4 3 3 4 2
3 3 2 8 13 10 3 1 4 5 3 3 3 3 3 2 2 1 1 0 1 1 0 1 1 0 1 3 3 3 3 1 3 3 3 3 3 2 3 4 3 3 4 4 4 2 2 0 1 2 4 5 5 8 6 5 5 5 5 8 6 4 2 1 2 0 2 2 3 1 1 4 2 3 3 5 4 3 5 6 6 5 6 5 3 4 4 2
3 2 1 2 4 5 4 4 5 4 2 3 2 2 3 3 4 1 1 1 0 1 1 1 2 3 2 4 4 3 4 3 3 2 2 3 3 3 3 2 3 5 6 3 3 3 4 2 3 2 6 7 7 10 9 6 5 4 4 7 8 7 4 4 2 3 2 2 3 1 2 7 5 3 5 6 5 5 6 7 7 7 8 7 5 5 3 4
3 2 1 0 1 2 3 3 4 5 4 4 3 1 3 4 4 2 2 2 1 1 1 2 4 4 1 2 2 2 5 6 3 2 2 3 3 4 5 3 3 6 5 3 3 3 4 2 3 1 6 9 8 9 8 4 2 1 3 5 6 7 5 6 1 3 2 2 4 3 5 8 4 4 5 6 7 7 6 7 8 8 9 7 4 4 3 4
3 3 1 2 3 3 1 1 3 5 6 4 3 2 3 4 4 2 2 2 4 2 2 3 5 6 2 1 1 1 3 4 4 4 1 3 4 3 4 3 2 4 6 4 3 2 3 2 2 0 5 10 10 8 4 2 1 2 4 5 5 4 4 4 2 4 3 4 5 5 8 6 4 4 5 6 5 6 6 6 8 9 9 5 3 4 5 4
2 3 1 3 4 2 1 2 3 4 4 3 3 2 1 1 3 4 2 0 2 3 3 3 6 6 2 2 3 2 3 2 4 6 1 3 4 1 1 2 2 5 6 4 3 2 2 2 1 2 4 8 8 6 5 2 1 2 2 5 5 5 4 4 4 5 5 5 5 7 8 3 4 5 7 6 5 6 7 9 10 9 7 4 4 7 7 7
4 3 4 5 4 3 3 3 3 4 3 3 2 1 2 1 1 3 3 2 1 2 2 2 5 4 2 1 1 4 6 4 6 8 4 2 3 2 1 1 0 5 6 3 3 3 3 2 2 5 4 7 4 6 9 6 3 4 4 7 7 5 3 3 5 5 5 5 7 8 6 2 4 7 8 7 8 9 10 11 12 8 5 5 7 8 7 7
4 3 3 6 3 3 2 2 3 4 2 2 1 0 2 2 2 1 1 2 1 2 2 1 0 2 3 4 4 4 5 5 6 6 3 3 2 1 1 1 2 0 2 1 2 2 2 1 2 3 3 6 5 7 10 6 4 2 4 5 5 4 3 4 7 7 4 3 4 5 4 4 7 8 9 9 10 11 10 11 10 6 5 6 7 7 6 7
Wind_Direction
72 56 33 28 26 17 4 357 349 338 331 321 317 298 288 283 292 306 312 321 322 326 331 335 340 339 333 327 322 305 293 259 267 354 32 2 349 340 332 321 317 325 335 336 345 357 1 13 11 6 45 127 20 7 51 32 81 54 87 133 221 196 204 190 183 191 179 248 232 220 185 171 222 250 217 313 345 6 243 263 271 273 315 103 233 163 153 158
60 40 20 18 11 1 353 351 351 348 342 333 330 312 302 295 300 309 314 320 322 327 332 338 343 340 339 333 327 317 284 254 260 317 7 354 350 343 327 314 309 314 326 332 348 10 18 340 340 4 38 93 352 20 64 3 82 90 124 159 229 202 213 199 177 191 176 219 221 216 181 181 210 193 100 256 279 327 248 267 296 269 272 30 92 139 152 158
52 23 9 9 0 354 350 353 0 359 358 356 349 329 317 311 316 321 325 329 330 335 334 337 340 341 345 339 341 346 273 254 281 289 347 352 348 340 327 311 309 313 323 332 342 354 345 290 319 13 45 71 333 359 75 22 82 158 135 193 243 216 230 226 185 199 204 179 184 221 165 182 227 181 116 224 269 288 228 238 224 234 246 220 131 145 155 159
33 8 3 0 356 356 358 8 11 6 9 10 6 350 333 329 335 336 336 339 338 338 335 335 336 342 346 338 345 347 359 39 324 295 352 351 347 342 332 322 324 322 320 329 334 336 327 313 48 57 59 33 326 358 154 274 284 157 142 195 231 198 238 243 197 198 206 168 152 165 127 233 245 190 173 163 269 279 239 226 211 219 230 198 164 164 162 163
3 358 358 356 357 1 7 19 18 22 27 20 12 359 350 350 351 345 339 335 332 332 334 336 336 342 344 341 339 326 34 40 305 326 356 348 351 345 333 332 334 322 320 329 332 345 9 68 76 55 52 214 327 12 214 274 103 166 215 204 195 155 223 254 197 184 168 127 109 117 160 237 214 181 199 164 214 251 224 216 208 216 223 184 168 172 167 168
355 353 354 355 2 5 11 19 21 28 25 13 4 353 351 349 351 347 337 332 331 333 334 336 340 344 343 343 344 339 93 80 299 355 349 349 357 347 335 332 340 336 328 324 332 14 59 52 66 77 51 97 242 205 229 305 58 221 281 245 200 180 213 264 160 173 132 110 137 169 213 218 54 287 224 182 225 236 214 202 198 222 217 171 160 161 168 178
3 353 351 355 6 11 12 12 8 1 348 345 339 336 334 335 341 340 339 336 334 338 340 341 344 346 346 340 333 24 94 237 326 357 337 355 360 351 343 326 345 345 330 343 350 31 87 53 81 149 89 41 217 199 249 329 38 123 272 287 234 199 222 247 101 114 118 129 203 195 272 234 219 277 343 236 242 242 243 222 165 220 173 151 152 164 178 185
360 348 348 354 3 8 9 4 348 329 322 321 320 322 321 323 326 330 338 338 336 340 343 347 349 351 356 355 31 16 348 272 343 343 332 354 1 3 356 325 348 346 356 17 2 182 121 68 152 159 102 230 197 168 287 337 18 133 234 269 95 201 258 292 53 77 101 181 236 85 278 242 222 251 320 268 259 257 249 226 123 99 130 148 160 175 183 185
351 346 349 353 355 356 357 355 346 326 316 313 313 314 314 317 318 324 334 339 343 341 341 349 353 358 359 32 86 21 305 303 349 339 342 348 354 6 5 3 14 12 32 30 22 94 159 137 185 178 172 203 173 171 336 333 286 216 210 243 112 302 308 354 254 336 13 294 76 298 279 283 266 271 282 267 268 290 263 207 158 121 135 162 169 179 181 184
345 345 350 352 352 350 345 343 343 335 324 315 312 314 314 314 314 319 325 335 344 340 340 345 350 2 360 44 75 27 284 358 348 342 349 346 347 356 9 20 22 25 32 31 37 54 89 177 180 150 151 136 137 115 6 167 213 191 160 184 149 309 307 102 240 302 2 271 168 204 269 297 314 332 271 266 277 325 335 177 175 153 166 171 167 182 184 193
338 343 347 349 350 348 342 338 336 335 329 319 314 312 312 314 313 313 313 322 333 335 336 338 347 359 11 67 95 202 283 352 339 345 346 344 349 348 2 10 14 23 20 34 47 44 46 174 167 117 142 164 137 36 298 206 135 86 100 296 305 339 311 190 234 277 263 247 178 167 268 296 338 10 243 258 316 6 38 175 191 178 184 165 168 178 184 204
336 340 342 343 343 342 341 336 331 329 326 322 315 308 308 307 306 306 302 309 320 327 328 334 347 345 14 56 125 215 312 341 332 344 345 345 349 342 348 354 358 8 359 14 30 33 34 7 129 96 276 176 151 359 256 202 67 28 54 333 304 353 327 249 228 216 161 189 178 151 304 292 248 223 239 268 355 18 53 175 195 175 172 151 164 165 188 208
339 339 338 339 340 338 337 334 330 327 321 319 312 305 303 298 296 296 291 305 314 317 321 332 347 351 39 25 239 259 325 339 348 352 350 349 350 341 327 331 340 342 335 352 357 19 27 360 119 115 123 107 138 239 89 43 44 315 43 49 308 355 326 280 27 134 148 175 175 147 292 279 257 244 247 289 347 360 332 289 346 145 149 143 154 166 194 185
341 342 340 340 339 335 333 332 330 328 323 319 311 302 295 286 285 284 282 302 306 306 312 325 345 11 60 296 272 350 322 341 359 355 353 350 353 351 328 330 324 311 309 318 335 360 16 20 101 100 72 83 154 100 42 8 20 332 345 41 349 343 285 298 29 137 145 181 147 128 248 268 275 268 263 285 288 219 250 275 326 67 108 131 154 157 150 80
348 349 346 341 336 334 333 333 333 334 334 326 316 309 298 280 271 276 287 296 298 298 297 285 321 34 62 312 315 360 333 351 355 350 351 348 352 351 333 333 325 304 305 297 317 347 357 38 82 82 28 11 48 69 18 344 9 25 283 304 338 187 267 309 300 158 153 316 85 125 223 270 277 281 296 306 163 168 229 265 288 290 93 135 148 120 95 72
2 356 348 340 335 335 332 333 337 338 339 332 323 319 306 280 264 277 290 291 293 291 277 227 209 86 82 315 336 1 348 347 340 338 340 344 346 335 327 330 331 350 335 301 297 355 12 44 66 85 123 38 60 83 29 355 340 354 169 258 275 195 279 320 321 202 155 82 98 190 231 276 278 277 324 11 110 150 235 267 260 218 150 130 109 90 92 80
10 355 344 339 335 336 334 335 337 340 343 336 328 323 313 295 275 286 296 293 295 286 172 158 148 98 78 333 357 342 327 322 323 325 334 345 339 327 326 332 343 342 344 11 89 37 19 37 60 298 57 50 83 92 32 327 293 319 22 250 251 212 258 302 313 314 67 109 233 228 233 257 269 268 302 349 27 161 239 262 264 184 104 92 79 81 86 83
4 349 342 339 336 336 335 338 341 346 348 340 337 338 336 2 101 54 8 321 170 108 105 74 50 93 346 349 357 302 307 311 318 329 349 350 336 331 331 330 339 339 3 32 23 39 9 24 68 3 12 3 63 99 133 241 227 256 236 236 278 274 246 261 284 279 126 155 238 244 256 257 267 274 289 333 351 269 247 268 3 82 88 90 82 85 86 82
355 348 343 341 341 337 333 342 347 350 355 351 351 46 55 73 107 61 40 53 95 99 106 325 20 119 251 306 302 304 311 309 321 352 6 353 341 341 8 48 360 12 43 5 338 20 30 25 39 358 295 280 197 164 202 216 189 212 215 194 250 272 262 244 258 257 186 172 240 235 251 260 269 286 309 326 321 270 258 67 77 86 91 92 86 86 86 82
352 350 348 347 347 342 337 348 352 354 4 4 4 97 50 40 39 359 21 42 88 153 118 228 216 129 291 302 314 331 331 315 352 26 4 351 341 351 40 25 22 42 58 267 295 355 64 39 281 235 238 249 236 213 209 203 163 145 205 217 253 255 274 263 260 289 203 169 254 235 245 267 279 304 322 319 319 339 99 94 91 91 90 89 88 85 81 83
355 354 353 353 352 351 345 352 0 4 13 17 35 82 91 92 40 317 335 5 248 181 13 254 218 266 288 292 325 349 356 344 4 18 5 353 345 355 335 14 33 16 346 250 271 349 56 285 252 232 235 250 252 203 153 133 138 51 238 255 285 243 262 266 240 304 338 173 268 271 269 281 301 327 331 338 8 40 76 103 99 94 90 82 85 80 75 77
358 357 358 356 355 354 343 351 6 8 20 33 59 85 111 140 111 168 66 5 283 280 317 294 322 305 291 289 339 3 40 10 346 351 2 358 9 16 322 38 61 298 324 351 319 355 11 247 251 242 217 187 47 90 105 96 139 69 206 246 291 259 280 294 293 328 8 179 274 1 340 300 331 356 5 13 34 45 50 82 86 89 89 78 79 76 72 70
360 358 359 359 358 355 339 342 360 5 31 46 64 87 103 119 129 144 100 91 302 327 3 355 22 326 328 19 13 12 40 30 324 317 357 3 12 32 23 47 46 289 350 15 154 27 301 250 257 261 139 138 25 46 74 36 9 214 210 224 273 274 301 284 307 330 309 226 264 332 330 314 342 14 33 21 40 61 55 66 62 63 77 76 75 73 73 74
0 358 0 359 359 357 341 318 351 8 38 54 64 83 110 134 147 141 89 84 334 317 316 328 135 284 328 340 355 11 51 59 266 305 357 14 1 5 69 65 25 31 318 74 138 186 256 253 273 58 67 139 247 343 67 104 314 277 218 211 244 259 231 231 288 317 311 303 266 346 340 342 10 37 40 13 42 57 47 61 57 43 55 65 66 63 63 68
2 359 0 359 359 357 344 305 352 7 32 57 58 67 99 120 190 159 93 65 3 315 325 302 98 12 318 329 343 354 169 304 250 286 348 18 1 345 18 182 50 328 255 235 92 272 272 277 15 63 41 57 152 287 241 181 271 305 242 215 218 225 240 270 333 342 355 337 302 50 11 315 8 57 46 7 53 52 30 52 55 40 44 53 58 55 54 60
2 359 359 358 359 357 350 290 349 358 22 52 27 5 48 68 238 162 91 62 33 315 342 340 15 352 338 347 342 351 79 343 295 308 355 15 2 121 353 296 27 318 247 229 323 275 280 360 43 91 83 60 57 281 247 157 117 311 265 205 172 138 252 318 353 357 339 269 260 87 122 256 324 59 58 58 74 59 37 49 49 43 45 47 50 48 52 59
358 356 355 355 357 0 359 304 344 360 43 8 352 345 356 130 54 135 56 44 8 304 343 312 335 11 341 335 346 68 57 315 328 15 12 6 341 77 27 311 339 311 268 75 4 283 231 9 25 51 74 54 4 292 239 134 112 268 245 125 115 89 286 265 250 237 240 270 300 83 151 211 268 93 135 119 88 65 46 45 38 40 44 47 50 50 55 60
350 350 352 352 354 2 6 359 4 28 35 341 344 358 109 142 165 93 82 67 325 315 42 297 311 15 334 340 18 68 291 314 35 333 345 30 356 18 28 293 196 274 320 90 283 273 231 18 3 39 49 14 276 248 193 138 139 261 223 147 194 247 248 213 179 218 268 355 310 282 147 180 244 149 182 147 96 85 65 47 35 36 40 46 52 53 57 59
343 344 349 352 354 1 5 22 34 24 2 352 348 325 278 109 41 64 79 102 301 2 176 304 345 324 340 359 16 27 341 358 49 311 338 52 20 29 62 229 144 181 344 93 215 257 331 247 214 126 89 263 250 241 187 161 239 264 167 151 22 63 56 97 135 164 44 20 262 260 180 164 252 189 180 163 120 131 124 76 38 29 38 46 54 55 56 58
338 340 347 354 360 1 359 16 18 7 356 355 337 284 221 74 61 63 52 257 323 331 257 17 3 325 5 18 346 351 19 357 327 329 352 27 358 20 80 196 100 106 8 19 249 255 313 288 196 116 181 218 238 249 183 179 249 305 80 353 355 30 38 44 77 108 66 295 253 256 215 138 284 205 184 201 151 147 139 111 61 34 44 46 48 56 55 59
336 341 350 0 8 6 3 355 357 355 352 351 343 146 115 41 60 83 66 285 315 334 1 13 346 360 28 37 331 340 8 330 327 9 9 360 359 7 29 32 41 53 8 360 329 306 348 22 239 284 233 182 31 318 218 206 324 57 59 13 348 340 12 25 351 49 92 263 262 260 196 147 215 217 207 310 124 127 126 120 98 67 56 50 48 52 50 58
337 343 354 6 12 12 11 351 347 350 347 349 55 98 84 32 30 81 291 322 340 334 357 330 321 4 7 11 346 331 339 329 347 47 34 17 36 15 24 31 353 16 3 338 328 330 342 312 280 307 282 145 66 348 336 357 34 48 27 35 23 342 358 352 314 324 198 242 256 353 43 181 205 224 2 49 110 118 121 121 108 89 72 58 51 52 53 57
341 348 359 11 13 11 8 354 349 349 344 350 95 63 71 76 30 254 281 328 356 325 338 297 316 343 345 360 351 326 335 328 344 30 66 92 65 22 353 2 64 42 350 294 345 348 333 301 307 338 325 57 88 21 326 324 6 359 341 88 79 13 354 303 281 295 278 266 269 352 353 268 170 50 12 75 109 115 118 118 110 96 83 65 53 59 65 61
346 360 15 19 13 8 4 354 349 347 344 13 88 52 62 73 285 281 306 285 284 328 354 345 322 340 28 24 326 326 4 327 341 13 2 24 47 6 331 345 15 53 4 340 1 19 6 309 297 335 341 15 53 235 221 219 319 314 191 125 123 163 221 269 244 244 277 285 296 310 317 227 174 56 350 90 106 106 113 117 109 98 88 72 54 51 63 62
354 19 32 21 12 6 359 351 345 343 344 47 68 56 78 101 268 298 304 276 295 328 319 334 1 15 13 330 310 3 37 299 339 13 12 32 61 350 337 326 337 34 60 12 331 213 114 265 265 315 31 72 336 277 123 65 341 290 145 92 79 185 170 241 212 198 246 307 311 284 132 242 140 94 35 97 102 102 111 109 96 84 68 65 49 34 51 66
2 43 36 21 11 2 355 347 341 340 349 77 65 53 115 186 268 167 244 294 335 313 317 351 33 33 344 314 326 1 17 275 333 357 358 42 170 246 315 263 292 33 61 59 294 317 13 274 279 335 15 89 161 236 12 10 315 308 75 267 245 183 132 182 277 342 48 336 288 171 123 79 95 119 155 128 110 105 105 92 83 74 54 49 40 25 40 66
10 77 37 17 6 357 351 343 337 343 33 81 78 90 201 208 148 193 243 320 283 275 12 15 14 11 336 314 312 327 341 323 337 360 335 330 332 241 307 265 234 44 32 349 269 266 231 276 291 332 320 287 169 164 336 336 163 121 281 256 255 132 96 101 299 346 14 273 271 169 151 192 171 153 186 158 124 111 101 82 70 62 47 37 27 21 38 64
7 102 46 11 357 349 347 346 344 19 71 68 76 115 191 326 182 218 219 29 262 27 60 46 325 8 27 284 286 301 336 342 340 1 339 319 353 121 95 344 238 47 354 2 297 271 170 283 300 330 245 295 351 51 341 327 64 145 236 257 22 74 315 9 18 310 329 286 286 317 278 201 196 181 173 169 148 128 112 85 63 44 39 30 12 13 47 60
17 44 46 355 349 345 351 13 35 62 68 64 79 119 186 275 258 235 205 134 189 76 70 227 281 3 5 205 268 295 328 337 329 347 5 333 336 86 90 31 333 1 354 17 213 263 47 286 291 294 259 303 348 23 338 319 338 8 338 332 41 166 200 241 191 195 256 284 285 319 325 239 238 189 154 155 145 126 118 94 61 34 29 22 359 4 62 67
30 51 333 346 349 348 16 48 54 55 61 88 157 158 31 268 272 275 236 227 212 96 59 213 213 337 312 293 297 298 310 298 302 310 248 307 324 357 49 44 332 327 337 29 100 289 4 183 263 292 316 327 334 359 326 289 308 343 6 349 327 301 300 304 297 137 140 254 241 314 305 262 293 57 127 124 110 110 105 93 62 25 6 352 341 7 66 72
49 66 314 343 353 4 73 51 48 53 80 86 112 116 25 23 304 325 321 353 355 258 145 153 161 265 293 322 319 283 304 312 297 271 259 297 339 347 9 49 111 321 350 19 26 339 359 170 252 301 331 316 284 283 284 251 226 172 121 326 252 319 6 332 302 319 69 192 186 226 287 266 312 57 112 108 104 102 84 82 54 7 333 316 314 99 23 89
58 81 320 346 1 71 81 52 18 49 91 73 42 100 5 46 55 336 351 39 22 320 39 98 129 205 190 255 296 274 313 302 263 279 256 243 233 284 329 18 87 335 12 349 312 283 139 98 324 288 282 282 288 305 10 201 146 131 126 75 112 62 61 227 269 287 317 271 179 170 268 268 336 57 98 95 102 102 87 81 32 344 321 315 330 82 350 93
72 161 335 356 6 100 75 50 333 22 56 264 350 95 351 40 46 333 353 21 4 358 15 23 111 354 220 252 326 310 311 265 218 215 260 254 271 279 307 350 338 353 32 338 321 341 50 67 2 291 283 300 311 341 30 38 79 82 349 41 80 329 88 185 219 218 237 261 232 232 265 233 114 84 97 97 97 105 104 71 15 342 327 329 20 12 330 277
107 202 338 9 25 104 91 83 131 49 2 307 37 22 349 27 88 356 347 346 358 65 33 353 292 6 345 83 278 248 288 305 254 298 326 254 299 2 14 5 352 14 40 359 337 340 327 355 1 333 331 337 344 354 349 348 32 34 311 356 41 296 337 185 218 69 231 243 206 227 267 195 127 112 93 92 82 79 73 29 2 337 327 320 299 320 302 269
67 128 298 10 36 66 98 154 142 127 131 50 50 13 354 9 70 22 234 288 349 146 115 333 292 134 290 341 320 279 300 254 254 330 17 309 296 17 20 356 1 22 353 337 343 326 283 272 38 18 329 318 325 321 323 331 326 302 320 338 344 328 312 271 237 76 238 264 27 194 257 3 150 153 90 61 60 35 360 350 337 327 328 309 279 295 290 287
82 58 312 348 24 52 74 131 101 107 129 91 55 11 18 3 299 272 165 195 16 112 98 315 303 23 5 10 359 310 308 255 252 318 354 299 286 321 341 347 29 25 350 1 20 52 94 305 254 177 219 249 269 273 294 334 310 303 334 331 329 330 308 176 119 247 245 300 339 246 279 335 289 165 56 24 26 356 336 337 331 332 335 317 286 293 304 40
100 83 33 330 357 29 34 18 41 71 116 114 91 9 2 334 315 333 160 203 47 47 42 33 32 34 3 358 3 301 301 319 286 289 313 287 277 295 318 26 44 351 345 5 9 58 76 333 304 226 243 252 258 272 293 319 296 301 342 326 325 332 350 82 85 296 300 336 310 266 5 335 332 72 41 5 348 331 330 338 336 332 332 325 307 306 334 45
72 133 187 158 55 51 34 17 50 62 47 71 109 43 2 353 352 358 292 316 20 23 14 16 15 26 2 327 360 308 314 334 321 285 315 327 330 331 338 23 28 344 356 12 348 70 102 271 273 260 280 280 282 284 291 298 287 26 6 323 333 352 33 76 66 284 352 327 284 307 333 327 353 51 25 355 341 327 326 338 335 326 326 322 307 317 1 30
76 113 310 10 87 142 162 2 72 68 43 48 78 50 36 21 360 323 265 345 356 344 40 4 331 344 338 230 145 320 319 340 321 298 312 344 348 356 345 341 348 357 19 19 346 88 122 266 261 217 294 293 296 299 304 310 344 46 10 341 348 359 45 64 306 290 322 290 272 311 323 328 46 44 354 346 342 325 325 333 328 325 327 323 322 347 6 5
120 140 151 53 64 96 43 21 62 68 38 36 58 43 57 48 342 312 258 64 341 326 20 357 308 317 318 175 150 241 263 237 270 273 271 350 331 341 338 287 289 348 11 27 336 358 64 308 305 62 328 295 299 321 335 330 157 116 7 354 356 354 15 26 345 328 328 301 300 324 320 328 67 24 348 342 338 333 334 332 327 329 338 346 355 358 356 348
97 120 137 107 62 359 7 26 63 77 37 7 38 29 355 2 315 293 270 223 212 284 337 328 302 311 343 115 173 258 258 222 239 254 244 265 272 233 252 260 331 344 350 11 341 357 40 345 356 44 353 289 302 345 328 324 82 98 10 351 351 351 359 351 329 325 318 304 311 321 325 350 9 352 343 337 338 339 337 332 330 336 359 5 356 353 348 343
96 73 96 104 77 356 9 23 36 74 73 337 343 265 304 307 286 286 325 315 248 228 239 200 199 339 343 336 320 282 256 231 235 250 236 205 211 200 245 216 144 284 302 12 357 4 72 33 340 29 336 284 307 332 315 326 49 36 327 333 323 308 313 321 320 324 335 339 320 319 340 353 344 341 338 336 340 340 335 331 330 341 7 360 345 338 341 347